Location: Amsterdam
(30.7274°N, 84.4357°W)
Time: 12:25:23
(UTC+00:00)

Tiros 1 - Pass Details

Date: 25 February 2026
Orbit: 618 x 650 km, 48.4° (Epoch: 16 March)

Event Time Altitude Azimuth Distance (km) Brightness Sun altitude
Rises 17:25:54 0° 316° (NW) 2,895 10.2 49.9°
Reaches altitude 10° 17:28:17 10° 321° (NW) 1,983 9.4 50.0°
Maximum altitude 17:32:42 49° 37° (NE) 800 7.9 50.1°
Drops below altitude 10° 17:37:05 10° 112° (ESE) 1,970 10.0 50.2°
Sets 17:39:26 0° 118° (ESE) 2,873 10.8 50.3°
